Location: Góry Miechowskie
(50.3599°N, 20.1803°E)
Time: 03:30:23
(UTC+00:00)

SR - Pass Details

Date: 15 September 2024
Orbit: 578 x 855 km, 66.7° (Epoch: 04 October)

Event Time Altitude Azimuth Distance (km) Brightness Sun altitude
Rises 18:35:42 0° 326° (NW) 2,876 ? -16.7°
Reaches altitude 10° 18:38:14 10° 340° (NNW) 2,003 ? -17.0°
Maximum altitude 18:42:01 26° 37° (NE) 1,295 ? -17.6°
Enters shadow 18:43:38 21° 68° (ENE) 1,474 ? -17.8°
